This is the latest recevied weather packets stored in our database for station/object KB4RFE. If no packets are shown the sender has not sent any weather packets the latest 1 day(s).
| Time | Temp. | Humidity | Pressure | Rain* | Wind** | Luminosity | Snow |
|---|---|---|---|---|---|---|---|
| 1778022705 | 21.67° C | 63% | 1019.4 hPa | 0 mm | 0.89 m/s, 287° | 28 W/m² | - |
| 1778022402 | 21.67° C | 63% | 1019.5 hPa | 0 mm | 4.02 m/s, 237° | 30 W/m² | - |
| 1778022099 | 21.67° C | 66% | 1019.6 hPa | 0 mm | 0.89 m/s, 264° | 32 W/m² | - |
| 1778021795 | 22.22° C | 65% | 1019.5 hPa | 0 mm | 3.13 m/s, 225° | 34 W/m² | - |
| 1778021491 | 22.22° C | 64% | 1019.3 hPa | 0 mm | 3.13 m/s, 229° | 33 W/m² | - |
| 1778021188 | 22.22° C | 63% | 1019.5 hPa | 0 mm | 1.34 m/s, 280° | 39 W/m² | - |
| 1778020885 | 22.22° C | 62% | 1019.4 hPa | 0 mm | 1.34 m/s, 195° | 41 W/m² | - |
| 1778020582 | 22.22° C | 62% | 1019.5 hPa | 0 mm | 2.68 m/s, 233° | 44 W/m² | - |
| 1778020279 | 22.22° C | 63% | 1019.5 hPa | 0 mm | 1.79 m/s, 259° | 45 W/m² | - |
| 1778019975 | 22.22° C | 60% | 1019.6 hPa | 0 mm | 2.68 m/s, 252° | 46 W/m² | - |
| 1778019671 | 22.22° C | 61% | 1019.5 hPa | 0 mm | 4.02 m/s, 215° | 49 W/m² | - |
| 1778019369 | 22.78° C | 62% | 1019.4 hPa | 0 mm | 3.58 m/s, 219° | 57 W/m² | - |
| 1778019065 | 22.78° C | 61% | 1019.5 hPa | 0 mm | 2.24 m/s, 189° | 78 W/m² | - |
| 1778018762 | 22.78° C | 61% | 1019.6 hPa | 0 mm | 2.24 m/s, 225° | 84 W/m² | - |
| 1778018460 | 22.78° C | 63% | 1019.7 hPa | 0 mm | 2.24 m/s, 248° | 79 W/m² | - |
| 1778018158 | 22.78° C | 61% | 1019.6 hPa | 0 mm | 0.45 m/s, 271° | 134 W/m² | - |
| 1778017855 | 22.78° C | 60% | 1019.7 hPa | 0 mm | 2.24 m/s, 193° | 103 W/m² | - |
| 1778017554 | 23.33° C | 58% | 1019.8 hPa | 0 mm | 1.79 m/s, 221° | 116 W/m² | - |
| 1778017250 | 23.33° C | 59% | 1019.8 hPa | 0 mm | 3.13 m/s, 224° | 149 W/m² | - |
| 1778016948 | 23.33° C | 60% | 1020.1 hPa | 0 mm | 0.89 m/s, 193° | 386 W/m² | - |
| 1778016644 | 23.33° C | 61% | 1019.8 hPa | 0 mm | 1.34 m/s, 247° | 389 W/m² | - |
| 1778016340 | 23.33° C | 62% | 1019.7 hPa | 0 mm | 1.79 m/s, 244° | 423 W/m² | - |
| 1778016038 | 23.33° C | 61% | 1019.7 hPa | 0 mm | 1.79 m/s, 226° | 455 W/m² | - |
| 1778015735 | 23.89° C | 58% | 1019.6 hPa | 0 mm | 1.79 m/s, 207° | 476 W/m² | - |
| 1778015431 | 23.89° C | 61% | 1019.7 hPa | 0 mm | 2.24 m/s, 194° | 493 W/m² | - |
* Rain latest hour (hover to see other rain measurements)
** Current wind speed in m/s (hover to see current wind gust speed)